WN4MDN Weather Reports


Display with metric or nautical units.
time (UTC)temp
F
wind
direction
speed
MPH
gust
MPH
rain 1hr
in
rain 24hr
in
rain mn
in
humidity
%
barometer
mb
20260903092035 71 0 0.0 0.0 0.00 0.00 0.00 93 1013.5
20260903091555 72 0 0.0 1.0 0.00 0.00 0.00 94 1013.6
20260903091035 72 0 0.0 1.0 0.00 0.00 0.00 94 1013.5
20260903090535 72 196 1.0 2.0 0.00 0.00 0.00 94 1013.4
20260903090053 72 196 0.0 2.0 0.00 0.00 0.00 94 1013.3
20260903085535 72 196 0.0 2.0 0.00 0.00 0.00 94 1013.2
20260903085033 72 196 0.0 2.0 0.00 0.00 0.00 94 1013.3
20260903084600 72 0 0.0 0.0 0.00 0.00 0.00 94 1013.3
20260903084035 72 0 0.0 2.0 0.00 0.00 0.00 94 1013.4
20260903083533 72 0 0.0 2.0 0.00 0.00 0.00 94 1013.4
20260903083105 72 0 0.0 2.0 0.00 0.00 0.00 93 1013.4
20260903082531 72 0 0.0 2.0 0.00 0.00 0.00 93 1013.4
20260903082034 73 196 0.0 2.0 0.00 0.00 0.00 93 1013.3
20260903081614 73 196 0.0 1.0 0.00 0.00 0.00 93 1013.4
20260903081032 73 196 0.0 1.0 0.00 0.00 0.00 93 1013.5
20260903080537 73 0 0.0 2.0 0.00 0.00 0.00 93 1013.4
20260903080109 73 0 0.0 2.0 0.00 0.00 0.00 93 1013.4
20260903075533 73 0 0.0 2.0 0.00 0.00 0.00 93 1013.4
20260903075033 73 196 1.0 2.0 0.00 0.00 0.00 93 1013.4
20260903074559 73 196 0.0 2.0 0.00 0.00 0.00 93 1013.4
20260903074034 74 196 0.0 2.0 0.00 0.00 0.00 93 1013.5
20260903073533 74 196 0.0 2.0 0.00 0.00 0.00 93 1013.4
20260903073058 74 196 1.0 3.0 0.00 0.00 0.00 93 1013.5
20260903072533 74 142 1.0 4.0 0.00 0.00 0.00 93 1013.5
20260903072035 74 186 2.0 4.0 0.00 0.00 0.00 93 1013.5
20260903071558 74 203 1.0 2.0 0.00 0.00 0.00 93 1013.7
20260903071033 74 162 1.0 3.0 0.00 0.00 0.00 93 1013.8
20260903070535 74 170 0.0 3.0 0.00 0.00 0.00 93 1013.7
20260903070058 74 146 0.0 2.0 0.00 0.00 0.00 93 1013.7
20260903065534 74 146 0.0 2.0 0.00 0.00 0.00 93 1013.6
20260903065033 74 146 0.0 2.0 0.00 0.00 0.00 94 1013.6
20260903064558 74 146 1.0 2.0 0.00 0.00 0.00 94 1013.5
20260903064032 74 146 0.0 3.0 0.00 0.00 0.00 94 1013.5
20260903063531 74 140 1.0 3.0 0.00 0.00 0.00 94 1013.5
20260903063108 74 149 1.0 2.0 0.00 0.00 0.00 94 1013.4
20260903062533 74 149 1.0 2.0 0.00 0.00 0.00 94 1013.3
20260903062034 73 149 1.0 2.0 0.00 0.00 0.00 94 1013.3
20260903061605 74 149 1.0 2.0 0.00 0.00 0.00 94 1013.5
20260903061033 74 158 1.0 2.0 0.00 0.00 0.00 94 1013.6
20260903060533 74 158 1.0 2.0 0.00 0.00 0.00 94 1013.6
20260903060052 74 158 1.0 2.0 0.00 0.00 0.00 94 1013.6
20260903055530 74 158 0.0 2.0 0.00 0.00 0.00 94 1013.7
20260903055033 74 158 0.0 2.0 0.00 0.00 0.00 94 1013.8
20260903054607 73 158 0.0 2.0 0.00 0.00 0.00 95 1014.0
20260903054033 73 158 1.0 3.0 0.00 0.00 0.00 95 1014.1
20260903053535 73 158 1.0 4.0 0.00 0.00 0.00 95 1014.2
20260903053104 73 165 2.0 4.0 0.00 0.00 0.00 94 1014.2
20260903052534 73 207 1.0 4.0 0.00 0.00 0.00 94 1014.1
20260903052034 73 340 0.0 2.0 0.00 0.00 0.00 94 1014.3
20260903051605 73 0 0.0 0.0 0.00 0.00 0.00 94 1014.4
20260903051035 73 0 0.0 0.0 0.00 0.00 0.00 94 1014.4
20260903050535 73 0 0.0 1.0 0.00 0.00 0.00 94 1014.5
20260903050108 73 0 0.0 1.0 0.00 0.00 0.00 94 1014.3
20260903045535 73 0 0.0 1.0 0.00 0.00 0.00 94 1014.5
20260903045033 73 340 0.0 1.0 0.00 0.00 0.00 94 1014.5
20260903044556 73 340 0.0 0.0 0.00 0.00 0.00 94 1014.6
20260903044035 73 0 0.0 0.0 0.00 0.00 0.00 94 1014.6
20260903043539 73 0 0.0 2.0 0.00 0.00 0.00 94 1014.6
20260903043055 73 0 0.0 2.0 0.00 0.00 0.00 94 1014.8
20260903042535 73 340 0.0 2.0 0.00 0.00 0.00 93 1014.9
20260903042035 73 0 0.0 0.0 0.00 0.00 0.00 93 1015.0
20260903041601 73 0 0.0 2.0 0.00 0.00 0.00 93 1015.0
20260903041035 73 0 0.0 2.0 0.00 0.00 0.00 93 1015.0
20260903040535 73 0 0.0 2.0 0.00 0.00 0.00 93 1015.2
20260903035534 73 340 0.0 2.0 0.00 0.00 0.00 93 1015.2
20260903035034 73 0 0.0 0.0 0.00 0.00 0.00 93 1015.4
20260903034555 73 0 0.0 0.0 0.00 0.00 0.00 93 1015.4
20260903034035 73 0 0.0 0.0 0.00 0.00 0.00 93 1015.5
20260903033535 73 0 0.0 0.0 0.00 0.00 0.00 93 1015.6
20260903033059 73 0 0.0 2.0 0.00 0.00 0.00 93 1015.7
20260903032535 73 0 0.0 2.0 0.00 0.00 0.00 92 1015.7
20260903032035 73 340 0.0 2.0 0.00 0.00 0.00 92 1015.7
20260903031558 74 340 2.0 2.0 0.00 0.00 0.00 91 1015.6
20260903031039 74 94 1.0 2.0 0.00 0.00 0.00 91 1015.6
20260903030535 74 0 0.0 2.0 0.00 0.00 0.00 92 1015.5
20260903030131 74 0 0.0 2.0 0.00 0.00 0.00 92 1015.4
20260903025535 74 94 0.0 1.0 0.00 0.00 0.00 92 1015.4
20260903025034 74 0 0.0 2.0 0.00 0.00 0.00 91 1015.3
20260903024555 74 0 0.0 2.0 0.00 0.00 0.00 91 1015.2
20260903024036 74 0 0.0 1.0 0.00 0.00 0.00 91 1015.0
20260903023539 75 94 1.0 2.0 0.00 0.00 0.00 90 1015.0
20260903023108 75 94 0.0 2.0 0.00 0.00 0.00 90 1015.1
20260903022535 75 0 0.0 2.0 0.00 0.00 0.00 90 1015.1
20260903022037 75 0 0.0 2.0 0.00 0.00 0.00 90 1015.0
20260903021601 75 94 1.0 1.0 0.00 0.00 0.00 89 1015.0
20260903021036 75 94 1.0 1.0 0.00 0.00 0.00 89 1015.1
20260903020535 75 94 1.0 2.0 0.00 0.00 0.00 89 1015.0
20260903020107 75 94 1.0 2.0 0.00 0.00 0.00 89 1015.1
20260903015537 75 94 1.0 2.0 0.00 0.00 0.00 89 1015.1
20260903015036 75 94 1.0 2.0 0.00 0.00 0.00 89 1015.1
20260903014606 75 94 0.0 2.0 0.00 0.00 0.00 89 1015.0
20260903014040 75 94 1.0 2.0 0.00 0.00 0.00 89 1015.0
20260903013537 75 94 2.0 2.0 0.00 0.00 0.00 89 1015.0
20260903013057 75 94 1.0 3.0 0.00 0.00 0.00 88 1014.8
20260903012536 75 94 1.0 3.0 0.00 0.00 0.00 88 1014.8
20260903012035 75 94 2.0 3.0 0.00 0.00 0.00 87 1014.9
20260903011603 76 94 2.0 2.0 0.00 0.00 0.00 87 1014.8
20260903011035 76 94 1.0 2.0 0.00 0.00 0.00 86 1014.9
20260903010536 76 94 1.0 2.0 0.00 0.00 0.00 86 1014.8
20260903005535 76 94 1.0 2.0 0.00 0.00 0.00 86 1014.7
20260903005037 76 94 1.0 2.0 0.00 0.00 0.00 85 1014.5
20260903004605 76 94 1.0 2.0 0.00 0.00 0.00 85 1014.5
20260903004035 76 94 1.0 2.0 0.00 0.00 0.00 85 1014.3
20260903003536 76 94 2.0 2.0 0.00 0.00 0.00 84 1014.4
20260903003056 77 94 1.0 2.0 0.00 0.00 0.00 84 1014.4
20260903002535 77 94 1.0 2.0 0.00 0.00 0.00 83 1014.3
20260903002034 77 83 1.0 2.0 0.00 0.00 0.00 82 1014.3
20260903001611 77 79 1.0 3.0 0.00 0.00 0.00 82 1014.1
20260903001035 78 79 1.0 4.0 0.00 0.00 0.00 81 1014.2
20260903000535 78 95 3.0 4.0 0.00 0.00 0.00 80 1014.0
20260903000109 78 90 2.0 4.0 0.00 0.00 0.00 80 1014.0
20260902235537 78 78 2.0 5.0 0.00 0.00 0.00 79 1013.9
20260902235037 79 80 3.0 8.0 0.00 0.00 0.00 78 1013.9
20260902234558 79 77 3.0 9.0 0.00 0.00 0.00 78 1013.9
20260902234035 79 112 5.0 9.0 0.00 0.00 0.00 77 1013.9
20260902233535 79 88 5.0 9.0 0.00 0.00 0.00 77 1013.9
20260902233105 80 92 4.0 8.0 0.00 0.00 0.00 77 1013.7
20260902232535 80 92 4.0 9.0 0.00 0.00 0.00 77 1013.8
20260902232035 80 86 4.0 9.0 0.00 0.00 0.00 77 1013.8
20260902231600 81 105 5.0 9.0 0.00 0.00 0.00 76 1013.9
20260902231035 81 101 4.0 8.0 0.00 0.00 0.00 76 1013.7
20260902230533 81 88 5.0 8.0 0.00 0.00 0.00 75 1013.7
20260902230057 82 96 4.0 8.0 0.00 0.00 0.00 75 1013.6
20260902225537 82 89 4.0 8.0 0.00 0.00 0.00 75 1013.5
20260902225037 82 101 4.0 10.0 0.00 0.00 0.00 74 1013.5
20260902224555 83 89 5.0 10.0 0.00 0.00 0.00 74 1013.4
20260902224035 84 90 6.0 10.0 0.00 0.00 0.00 73 1013.3
20260902223535 84 102 5.0 11.0 0.00 0.00 0.00 71 1013.3
20260902223051 85 69 7.0 11.0 0.00 0.00 0.00 71 1013.3
20260902222534 85 115 5.0 9.0 0.00 0.00 0.00 72 1013.2
20260902222038 85 80 5.0 10.0 0.00 0.00 0.00 73 1013.3
20260902221613 85 106 6.0 10.0 0.00 0.00 0.00 72 1013.4
20260902221035 85 100 6.0 10.0 0.00 0.00 0.00 73 1013.4
20260902220537 85 106 6.0 10.0 0.00 0.00 0.00 74 1013.3
20260902220107 85 105 5.0 12.0 0.00 0.00 0.00 74 1013.4
20260902215534 85 117 7.0 12.0 0.00 0.00 0.00 74 1013.5
20260902215034 85 82 7.0 11.0 0.00 0.00 0.00 74 1013.6
20260902214601 86 119 6.0 10.0 0.00 0.00 0.00 73 1013.5
20260902214035 86 124 7.0 10.0 0.00 0.00 0.00 71 1013.6
20260902213537 87 134 6.0 12.0 0.00 0.00 0.00 71 1013.6
20260902213057 88 111 6.0 12.0 0.00 0.00 0.00 71 1013.7
20260902212535 88 78 5.0 9.0 0.00 0.00 0.00 70 1013.5
20260902212034 87 96 3.0 9.0 0.00 0.00 0.00 69 1013.5
20260902211601 87 53 5.0 9.0 0.00 0.00 0.00 72 1013.6
20260902211035 87 92 4.0 10.0 0.00 0.00 0.00 70 1013.5
20260902210535 87 78 7.0 11.0 0.00 0.00 0.00 69 1013.6
20260902210103 88 101 7.0 11.0 0.00 0.00 0.00 69 1013.6
20260902205533 88 90 3.0 11.0 0.00 0.00 0.00 67 1013.4
20260902205035 88 53 4.0 11.0 0.00 0.00 0.00 68 1013.4
20260902204613 88 53 7.0 11.0 0.00 0.00 0.00 66 1013.5
20260902204035 88 54 4.0 9.0 0.00 0.00 0.00 66 1013.5
20260902203535 88 150 2.0 9.0 0.00 0.00 0.00 66 1013.6
20260902203057 88 145 2.0 4.0 0.00 0.00 0.00 66 1013.7
20260902202535 87 86 2.0 4.0 0.00 0.00 0.00 67 1013.6
20260902202034 87 107 2.0 6.0 0.00 0.00 0.00 69 1013.6
20260902201601 86 97 3.0 6.0 0.00 0.00 0.00 69 1013.6
20260902201035 86 117 2.0 9.0 0.00 0.00 0.00 73 1013.7
20260902200535 85 109 3.0 9.0 0.00 0.00 0.00 71 1013.7
20260902200059 86 79 4.0 9.0 0.00 0.00 0.00 71 1013.8
20260902195539 86 99 3.0 8.0 0.00 0.00 0.00 71 1013.8
20260902195035 86 94 3.0 10.0 0.00 0.00 0.00 71 1013.9
20260902194607 86 78 5.0 10.0 0.00 0.00 0.00 70 1013.9
20260902194035 87 76 4.0 10.0 0.00 0.00 0.00 70 1014.0
20260902193535 86 76 6.0 9.0 0.00 0.00 0.00 71 1014.0
20260902193053 86 61 5.0 9.0 0.00 0.00 0.00 72 1014.2
20260902192535 87 142 5.0 9.0 0.00 0.00 0.00 72 1014.2
20260902192036 86 131 4.0 9.0 0.00 0.00 0.00 74 1014.3
20260902191604 86 144 5.0 8.0 0.00 0.00 0.00 76 1014.4
20260902191034 85 101 4.0 7.0 0.00 0.00 0.00 74 1014.4
20260902190535 85 89 3.0 9.0 0.00 0.00 0.00 75 1014.4
20260902185535 85 96 3.0 8.0 0.00 0.00 0.00 73 1014.6
20260902185035 85 111 4.0 8.0 0.00 0.00 0.00 75 1014.6
20260902184602 85 116 3.0 8.0 0.00 0.00 0.00 76 1014.6
20260902184035 85 136 2.0 7.0 0.00 0.00 0.00 74 1014.7
20260902183536 85 106 4.0 8.0 0.00 0.00 0.00 73 1014.7
20260902183139 84 105 3.0 8.0 0.00 0.00 0.00 75 1014.8
20260902182538 84 115 3.0 7.0 0.00 0.00 0.00 73 1014.9
20260902182035 84 103 4.0 7.0 0.00 0.00 0.00 73 1015.0
20260902181609 84 130 4.0 7.0 0.00 0.00 0.00 74 1015.0
20260902181034 84 120 4.0 8.0 0.00 0.00 0.00 75 1014.9
20260902180534 84 143 3.0 8.0 0.00 0.00 0.00 75 1015.0
20260902180104 84 98 3.0 6.0 0.00 0.00 0.00 76 1015.1
20260902175535 84 128 3.0 8.0 0.00 0.00 0.00 75 1015.1
20260902175036 84 130 4.0 8.0 0.00 0.00 0.00 77 1015.1
20260902174554 84 135 3.0 6.0 0.00 0.00 0.00 77 1015.2
20260902174038 84 136 4.0 7.0 0.00 0.00 0.00 75 1015.2
20260902173535 84 133 4.0 7.0 0.00 0.00 0.00 75 1015.2
20260902173102 84 146 3.0 6.0 0.00 0.00 0.00 75 1015.3
20260902172536 84 146 3.0 6.0 0.00 0.00 0.00 73 1015.4
20260902172035 84 121 3.0 6.0 0.00 0.00 0.00 73 1015.4
20260902171626 84 109 2.0 4.0 0.00 0.00 0.00 73 1015.4
20260902171035 84 112 2.0 4.0 0.00 0.00 0.00 73 1015.5
20260902170534 85 107 3.0 4.0 0.00 0.00 0.00 73 1015.6
20260902170059 85 109 2.0 4.0 0.00 0.00 0.00 73 1015.6
20260902165534 85 120 1.0 3.0 0.00 0.00 0.00 72 1015.6
20260902165034 85 119 2.0 3.0 0.00 0.00 0.00 71 1015.6
20260902164633 85 114 1.0 4.0 0.00 0.00 0.00 72 1015.8
20260902164035 85 96 1.0 6.0 0.00 0.00 0.00 71 1015.9
20260902163534 85 98 3.0 6.0 0.00 0.00 0.00 70 1015.9
20260902163057 86 98 3.0 6.0 0.00 0.00 0.00 71 1015.9
20260902162534 86 64 3.0 6.0 0.00 0.00 0.00 67 1015.9
20260902162034 86 95 1.0 2.0 0.00 0.00 0.00 68 1015.9
20260902161601 87 95 1.0 2.0 0.00 0.00 0.00 69 1015.8
20260902161034 87 81 0.0 2.0 0.00 0.00 0.00 67 1015.8
20260902160533 87 72 1.0 2.0 0.00 0.00 0.00 67 1016.0
20260902160055 87 222 0.0 3.0 0.00 0.00 0.00 67 1016.1
20260902155535 87 162 1.0 4.0 0.00 0.00 0.00 66 1016.2
20260902155035 87 103 1.0 4.0 0.00 0.00 0.00 67 1016.3
20260902154601 87 88 1.0 4.0 0.00 0.00 0.00 69 1016.3
20260902154038 86 0 0.0 4.0 0.00 0.00 0.00 67 1016.4
20260902153534 86 130 2.0 4.0 0.00 0.00 0.00 69 1016.4
20260902153058 86 95 2.0 3.0 0.00 0.00 0.00 69 1016.4
20260902152534 86 65 2.0 3.0 0.00 0.00 0.00 70 1016.3
20260902152036 86 119 1.0 3.0 0.00 0.00 0.00 71 1016.3
20260902151555 86 120 1.0 4.0 0.00 0.00 0.00 68 1016.2
20260902151035 86 86 1.0 4.0 0.00 0.00 0.00 69 1016.1
20260902150534 86 24 2.0 4.0 0.00 0.00 0.00 69 1016.1
20260902150058 86 82 2.0 4.0 0.00 0.00 0.00 69 1016.2
20260902145534 86 62 1.0 3.0 0.00 0.00 0.00 73 1016.3
20260902145034 85 27 1.0 6.0 0.00 0.00 0.00 72 1016.2
20260902144604 85 26 3.0 6.0 0.00 0.00 0.00 73 1016.2
20260902144035 85 335 2.0 5.0 0.00 0.00 0.00 77 1016.3
20260902143535 84 312 3.0 4.0 0.00 0.00 0.00 77 1016.3
20260902143057 83 360 1.0 5.0 0.00 0.00 0.00 76 1016.3
20260902142534 83 350 2.0 5.0 0.00 0.00 0.00 77 1016.3
20260902142037 83 42 2.0 5.0 0.00 0.00 0.00 79 1016.3
20260902141600 83 24 2.0 5.0 0.00 0.00 0.00 80 1016.3
20260902141034 83 40 4.0 5.0 0.00 0.00 0.00 81 1016.2
20260902140635 83 344 2.0 5.0 0.00 0.00 0.00 82 1016.1
20260902140054 82 73 2.0 5.0 0.00 0.00 0.00 83 1016.1
20260902135533 81 5 3.0 5.0 0.00 0.00 0.00 85 1016.0
20260902135036 81 5 2.0 5.0 0.00 0.00 0.00 86 1016.1
20260902134605 81 5 2.0 4.0 0.00 0.00 0.00 86 1016.0
20260902134037 80 352 1.0 3.0 0.00 0.00 0.00 88 1016.0
20260902133533 80 9 2.0 3.0 0.00 0.00 0.00 88 1016.0
20260902133055 80 5 1.0 3.0 0.00 0.00 0.00 89 1016.1
20260902132536 79 16 2.0 3.0 0.00 0.00 0.00 90 1016.1
20260902132035 79 28 2.0 3.0 0.00 0.00 0.00 90 1016.1
20260902131611 79 342 1.0 2.0 0.00 0.00 0.00 91 1016.1
20260902131035 78 344 1.0 3.0 0.00 0.00 0.00 92 1016.2
20260902130535 78 345 1.0 3.0 0.00 0.00 0.00 93 1016.0
20260902130059 78 352 1.0 3.0 0.00 0.00 0.00 93 1016.0
20260902125535 77 360 1.0 3.0 0.00 0.00 0.00 94 1016.0
20260902125034 77 346 2.0 4.0 0.00 0.00 0.00 95 1016.0
20260902124600 77 345 2.0 4.0 0.00 0.00 0.00 96 1016.0
20260902124034 76 31 2.0 3.0 0.00 0.00 0.00 96 1016.0
20260902123535 76 336 1.0 3.0 0.00 0.00 0.00 96 1015.9
20260902123054 75 335 1.0 2.0 0.00 0.00 0.00 96 1015.9
20260902122535 76 287 1.0 2.0 0.00 0.00 0.00 96 1015.9
20260902122036 75 287 1.0 2.0 0.00 0.00 0.00 96 1015.9
20260902121557 75 286 1.0 2.0 0.00 0.00 0.00 96 1015.9
20260902121035 75 287 0.0 2.0 0.00 0.00 0.00 96 1015.9
20260902120535 74 337 0.0 2.0 0.00 0.00 0.00 96 1015.8
20260902120052 74 339 0.0 2.0 0.00 0.00 0.00 96 1015.8
20260902115537 73 0 0.0 2.0 0.00 0.00 0.00 96 1015.8
20260902115035 73 0 0.0 2.0 0.00 0.00 0.00 96 1015.8
20260902114619 72 0 0.0 2.0 0.00 0.00 0.00 96 1015.8
20260902114039 72 0 0.0 2.0 0.00 0.00 0.00 96 1015.7
20260902113534 71 0 0.0 2.0 0.00 0.00 0.00 96 1015.7
20260902113057 71 0 0.0 2.0 0.00 0.00 0.00 96 1015.6
20260902112535 70 0 0.0 2.0 0.00 0.00 0.00 96 1015.5
20260902112037 70 350 0.0 2.0 0.00 0.00 0.00 96 1015.5
20260902111556 71 0 0.0 2.0 0.00 0.00 0.00 96 1015.5
20260902111035 71 350 1.0 1.0 0.00 0.00 0.00 96 1015.4
20260902110535 71 0 0.0 0.0 0.00 0.00 0.00 96 1015.4
20260902110108 71 0 0.0 0.0 0.00 0.00 0.00 96 1015.4
20260902105535 71 0 0.0 0.0 0.00 0.00 0.00 96 1015.4
20260902105035 71 0 0.0 0.0 0.00 0.00 0.00 96 1015.2
20260902104600 71 0 0.0 0.0 0.00 0.00 0.00 96 1015.1
20260902104035 71 0 0.0 0.0 0.00 0.00 0.00 96 1015.2
20260902103534 71 0 0.0 0.0 0.00 0.00 0.00 96 1015.2
20260902103106 71 0 0.0 0.0 0.00 0.00 0.00 96 1015.1
20260902102535 71 0 0.0 0.0 0.00 0.00 0.00 96 1015.0
20260902102035 71 0 0.0 1.0 0.00 0.00 0.00 96 1014.9
20260902101600 71 0 0.0 1.0 0.00 0.00 0.00 96 1015.0
20260902101037 71 350 0.0 2.0 0.00 0.00 0.00 96 1015.1
20260902100541 71 350 0.0 2.0 0.00 0.00 0.00 96 1015.1
20260902100100 71 0 0.0 2.0 0.00 0.00 0.00 96 1015.1
20260902095535 71 350 1.0 2.0 0.00 0.00 0.00 96 1014.9
20260902095033 71 350 0.0 2.0 0.00 0.00 0.00 96 1015.0
20260902094558 71 0 0.0 1.0 0.00 0.00 0.00 96 1015.0
20260902094034 71 0 0.0 1.0 0.00 0.00 0.00 96 1015.0
20260902093536 71 350 1.0 2.0 0.00 0.00 0.00 95 1015.1
20260902093055 71 352 1.0 2.0 0.00 0.00 0.00 96 1015.1
20260902092535 71 352 0.0 2.0 0.00 0.00 0.00 96 1015.0